MDT,Max TemperatureF,Mean TemperatureF,Min TemperatureF,Max Dew PointF,MeanDew PointF,Min DewpointF,Max Humidity, Mean Humidity, Min Humidity, Max Sea Level PressureIn, Mean Sea Level PressureIn, Min Sea Level PressureIn, Max VisibilityMiles, Mean VisibilityMiles, Min VisibilityMiles, Max Wind SpeedMPH, Mean Wind SpeedMPH, Max Gust SpeedMPH,PrecipitationIn, CloudCover, Events, WindDirDegrees
2013-3-1,46,35,24,28,22,16,82,60,35,30.30,30.27,30.23,10,10,10,18,13,24,0.00,5,,322
2013-3-2,58,42,27,31,28,24,94,63,26,30.28,30.20,30.04,10,10,7,12,7,,0.00,1,,257
2013-3-3,60,46,32,32,28,23,84,60,24,30.01,29.77,29.65,10,10,10,14,5,,0.00,0,,247
2013-3-4,40,29,18,30,20,11,93,67,45,30.23,29.94,29.68,10,10,0,32,15,39,0.00,4,,345
2013-3-5,39,26,12,21,14,7,83,61,32,30.31,30.23,30.16,10,10,10,21,9,18,0.00,0,,155
2013-3-6,56,36,17,25,21,14,88,61,26,30.15,29.97,29.83,10,10,10,14,6,16,0.00,0,,104
2013-3-7,64,44,24,30,25,18,94,62,17,29.98,29.92,29.85,10,10,10,17,7,21,0.00,0,,58
2013-3-8,47,36,25,32,29,24,93,75,50,29.98,29.85,29.68,10,10,7,15,8,,0.00,1,,39
2013-3-9,35,28,18,32,27,12,99,84,71,30.05,29.78,29.61,10,6,0,30,15,37,0.00,6,Thunderstorm,345
2013-3-10,37,27,17,23,19,12,91,69,44,30.14,30.07,29.98,10,10,4,23,13,25,0.00,2,,330
2013-3-11,50,36,23,32,27,20,99,77,43,30.15,29.99,29.91,10,8,1,29,10,34,0.00,5,,312
2013-3-12,35,30,25,32,23,19,99,77,57,30.33,30.25,30.16,10,9,1,16,9,,0.00,4,,319
2013-3-13,61,40,19,37,29,18,96,69,31,30.26,30.22,30.18,10,9,5,14,6,,0.00,0,,247
2013-3-14,70,51,32,34,30,20,89,54,15,30.30,30.21,30.11,10,10,10,12,7,18,0.00,0,,245
2013-3-15,79,58,36,36,28,18,84,45,12,30.11,29.94,29.85,10,10,10,18,7,22,0.00,1,,281
2013-3-16,52,43,34,34,31,28,85,60,41,30.05,29.93,29.82,10,10,10,24,13,31,0.00,4,Rain,127
2013-3-17,61,44,27,32,24,4,94,58,23,29.83,29.67,29.51,10,10,10,43,9,50,0.00,1,,296
2013-3-18,51,38,24,18,8,0,66,32,13,29.94,29.89,29.83,10,10,10,29,17,39,0.00,2,,303
2013-3-19,53,36,20,20,11,-4,84,46,9,30.34,30.10,29.92,10,10,10,29,14,39,0.00,0,,357
2013-3-20,55,35,15,22,17,11,95,54,17,30.34,30.04,29.74,10,10,10,15,7,21,0.00,1,,161
2013-3-21,57,41,25,36,25,16,89,64,32,29.84,29.67,29.55,10,10,2,36,7,43,0.00,3,Thunderstorm,351
2013-3-22,45,36,26,30,23,16,96,71,33,29.90,29.82,29.72,10,9,0,24,10,29,0.00,4,,65
2013-3-23,26,18,10,26,17,6,96,86,72,30.16,30.02,29.86,10,6,0,34,19,39,0.00,7,,346
2013-3-24,30,15,0,18,9,-2,92,76,43,30.22,30.12,30.07,10,9,0,16,9,18,0.00,3,,297
2013-3-25,30,20,10,16,12,6,90,74,55,30.29,30.24,30.21,10,9,3,10,6,,0.00,2,,264
2013-3-26,41,24,8,29,17,3,88,69,40,30.21,30.05,29.94,10,10,10,13,5,,0.00,2,,319
2013-3-27,49,38,28,35,31,25,92,76,54,30.12,30.07,30.00,10,10,7,12,5,,0.00,2,,150
2013-3-28,62,46,29,39,33,27,95,67,32,30.11,30.08,30.04,10,10,4,12,4,,0.00,2,,220
2013-3-29,70,52,35,36,32,25,91,56,19,30.12,30.08,30.03,10,10,10,21,8,34,0.00,2,,267
2013-3-30,64,50,35,42,34,30,86,64,28,30.21,30.11,30.04,10,10,10,23,11,36,0.00,2,Rain,317
2013-3-31,69,48,27,36,26,15,99,55,13,30.20,30.05,29.92,10,9,0,20,7,24,0.00,0,,295